Voltar ao catálogo

GLOBALSTAR M091

AtivoComunicaçõesLEO
NORAD 37741·PAYLOAD·🇺🇸 United States

Lançado Jul 13, 2011 de Baikonur Cosmodrome

Loading…

Próximas Passagens (próximas 24 horas)

TLE

AtualizadoSource: Space-Track

Época: Sep 14, 2026, 14:58 UTC

1 37741U 11033C   26257.62399836 -.00000085  00000-0  10652-3 0  9999
2 37741  52.0018 329.6329 0000613 114.7283  49.5652 12.62264809700570

Acompanhe GLOBALSTAR M091 em tempo real com AllMySat

Download on the App Store